Wind_Speed
17 21 20 21 24 26 24 23 26 30 31 32 30 25 23 19 19 19 22 24 24 27 29 30 33 37 39 38 38 33 33 32 35 36 34 36 28 23 20 9 2 8 14 21 21 16 12 9 12
18 17 16 23 27 27 28 27 27 34 24 27 28 20 19 18 21 24 23 25 31 30 31 32 35 38 38 36 32 32 32 33 29 31 32 25 23 19 13 5 1 9 14 16 17 18 13 8 6
23 15 9 11 15 8 23 32 22 26 22 19 24 28 27 25 26 25 28 31 32 34 34 35 35 34 32 27 30 30 26 27 29 29 23 21 14 13 11 5 4 11 15 15 15 15 15 11 6
25 22 13 37 29 33 22 17 18 22 25 28 30 30 30 25 25 29 33 35 35 34 33 32 30 23 24 28 29 27 30 28 26 21 17 13 12 13 10 7 8 13 15 15 14 12 11 12 8
31 39 22 18 33 28 30 35 27 26 27 27 30 30 29 29 31 32 34 31 28 24 20 20 20 22 27 30 29 29 27 26 18 13 10 9 10 11 11 11 14 16 20 23 20 13 8 9 11
31 37 37 48 49 47 39 35 32 29 29 28 27 27 30 31 33 34 28 23 19 17 20 21 23 24 21 20 25 25 21 17 10 7 8 14 17 15 16 19 22 22 23 26 27 24 11 8 10
28 31 35 36 41 40 38 32 27 31 29 25 29 27 28 28 28 25 21 20 17 19 18 18 17 20 22 25 19 15 14 7 4 9 15 17 18 19 23 20 21 22 29 31 33 33 26 16 7
31 21 33 38 38 37 35 30 28 26 24 23 26 26 25 24 23 22 20 17 16 15 14 16 20 20 18 12 13 10 5 7 13 13 14 17 20 20 19 20 22 24 21 27 28 33 33 29 21
24 21 21 32 32 28 32 31 29 22 22 23 22 23 23 25 22 22 18 16 16 17 17 21 14 9 11 10 5 9 11 13 15 16 15 17 18 19 20 18 20 22 22 24 23 23 27 28 23
19 15 15 16 18 17 26 26 25 21 23 21 18 20 23 21 19 20 16 18 16 16 15 5 6 8 4 6 10 12 13 13 16 16 15 16 16 17 16 20 21 18 18 22 21 23 30 28 25
19 15 28 22 22 22 22 24 25 22 22 21 20 20 19 22 20 20 17 16 15 9 3 5 5 3 9 12 11 11 14 16 18 15 15 14 14 16 15 17 16 15 18 19 22 20 24 28 31
25 31 21 21 21 22 20 17 21 20 21 21 20 18 17 16 14 14 12 9 7 4 2 2 5 11 13 12 12 16 18 18 16 15 16 14 14 13 15 16 17 18 18 18 19 18 14 10 14
16 20 18 16 20 14 21 18 19 18 16 13 12 11 8 9 11 11 8 6 6 3 4 10 15 15 13 12 15 14 17 18 15 12 12 15 15 15 15 16 17 18 18 18 18 15 16 11 14
6 13 17 19 14 16 14 10 10 11 9 6 9 12 11 12 8 8 7 9 7 10 15 16 15 15 13 16 14 15 14 15 15 13 14 14 14 15 16 18 18 20 19 20 18 18 15 15 17
5 7 5 2 7 13 11 9 8 7 7 7 11 12 11 11 9 9 10 12 16 18 17 15 14 15 14 12 14 14 14 14 14 14 13 13 14 16 15 17 17 20 18 20 18 15 14 7 8
7 7 7 5 3 4 8 9 5 6 7 10 13 19 20 15 15 16 18 17 17 17 17 14 15 14 14 14 13 12 12 13 12 13 13 14 14 14 14 15 16 19 20 20 20 14 14 3 7
10 10 9 6 5 4 11 9 4 11 13 14 13 19 22 17 20 22 19 19 19 17 16 16 15 14 13 11 11 10 10 11 12 12 13 13 14 13 13 15 17 21 23 25 22 18 15 10 8
14 13 10 8 5 2 13 11 2 7 12 12 12 17 16 20 21 20 20 19 19 18 16 15 14 13 11 9 8 7 9 10 12 13 14 15 14 14 17 19 21 23 23 25 21 18 15 13 15
19 18 14 11 8 3 14 9 8 7 9 11 15 18 19 17 17 18 19 18 19 17 15 13 12 10 8 6 6 6 8 10 13 15 15 14 14 16 21 23 24 27 25 24 21 19 17 13 16
23 23 21 15 11 9 11 15 10 7 10 14 18 18 16 16 17 18 18 19 16 14 13 11 10 8 5 4 5 7 9 12 13 14 15 14 16 20 21 25 28 30 29 26 23 22 20 23 27
29 29 28 20 18 14 15 17 13 11 11 15 17 14 15 17 18 19 18 17 16 15 13 11 10 7 4 1 5 7 10 14 15 15 14 16 18 21 25 27 32 33 31 25 26 28 26 25 26
34 37 35 29 25 18 19 20 17 14 13 16 15 15 16 17 19 18 17 16 15 15 13 11 8 7 6 5 6 9 12 14 15 15 16 17 21 24 27 30 33 37 38 34 30 28 32 34 34
46 41 41 37 31 26 20 20 21 19 19 19 19 17 16 16 17 16 16 15 15 14 12 10 10 10 9 7 8 11 14 15 16 17 18 18 21 25 29 32 33 37 39 39 34 32 32 32 30
55 45 44 42 36 27 27 22 21 22 24 25 23 20 19 18 16 15 15 15 15 15 13 12 11 12 11 10 12 14 14 16 17 19 20 22 24 26 28 31 36 37 39 41 40 38 36 34 33
57 55 48 44 39 30 32 26 28 27 24 25 26 25 27 27 25 22 22 19 17 17 15 14 13 15 15 14 15 18 17 18 19 20 22 25 27 28 30 32 35 38 40 43 46 43 39 37 36
60 59 55 49 47 47 43 34 37 33 32 30 27 26 30 31 30 25 23 21 23 19 18 18 17 18 18 19 21 21 21 23 23 23 23 26 30 32 32 34 35 40 42 44 44 46 44 40 41
58 60 64 63 58 53 44 42 43 41 37 34 32 30 34 32 33 31 26 28 27 23 21 23 21 21 20 23 24 24 24 25 25 27 26 28 30 35 36 36 37 39 42 45 48 48 46 44 43
43 55 65 63 60 54 52 50 45 47 42 43 39 36 35 37 33 34 33 36 33 29 25 27 26 25 24 26 27 27 27 29 29 29 29 32 34 36 39 40 41 44 44 48 51 53 48 45 45
40 39 51 67 67 62 59 51 56 54 52 50 47 48 43 43 43 36 40 36 34 33 31 28 30 30 29 29 31 31 30 33 33 32 32 34 39 41 40 43 45 46 48 50 53 55 53 50 47
45 40 43 55 62 70 70 56 63 63 65 59 56 53 44 46 42 44 44 40 37 37 36 34 34 35 34 34 34 34 35 37 36 35 36 39 42 46 46 46 48 49 50 52 54 56 56 53 51
Wind_Direction
217 222 232 241 228 228 231 240 249 249 256 267 258 266 275 255 253 255 279 262 263 268 270 276 278 278 285 290 297 300 303 309 308 314 314 314 316 324 330 341 347 8 1 12 22 31 47 84 78
212 217 243 266 246 241 257 239 259 252 259 257 263 263 266 260 272 279 281 266 278 282 279 279 281 283 287 293 299 303 304 308 314 320 316 313 320 332 351 31 339 356 357 8 21 27 42 65 99
202 189 181 312 226 173 218 236 245 240 255 261 265 265 265 260 267 276 281 282 281 281 280 282 283 284 292 298 302 305 318 319 322 317 319 327 350 4 17 56 340 347 354 3 10 11 28 50 85
193 165 229 271 210 205 201 217 233 230 259 259 260 263 265 269 272 274 279 282 285 285 283 284 288 294 296 291 296 315 315 319 315 324 335 11 15 32 30 28 1 360 358 358 360 1 33 40 54
197 199 176 224 209 215 233 254 266 249 254 255 256 259 266 268 272 278 279 281 287 289 292 292 292 292 292 301 306 307 311 313 321 337 12 14 27 52 45 30 30 38 46 43 41 34 37 46 47
200 214 231 236 245 247 252 257 259 255 257 261 266 269 269 270 271 275 280 286 285 293 286 285 284 290 296 306 308 307 309 316 334 7 33 38 54 60 58 65 66 51 52 49 49 48 54 51 52
207 222 226 242 249 250 254 256 248 252 257 268 273 273 273 271 274 276 277 281 283 289 279 273 292 302 305 307 306 311 317 335 15 69 62 64 60 57 69 67 56 55 59 56 56 55 55 51 62
206 231 234 250 258 255 252 254 246 249 253 260 263 267 270 273 273 272 274 273 280 273 275 289 296 303 310 313 315 327 15 68 89 75 89 62 64 65 64 61 56 53 58 47 63 53 51 47 50
187 224 240 249 247 258 257 257 254 251 262 253 253 269 264 269 265 262 267 266 266 272 284 290 299 311 315 328 5 87 88 85 82 87 87 76 67 59 61 52 51 50 47 48 53 50 49 46 41
202 209 231 241 248 259 265 262 261 257 260 256 256 254 263 261 266 266 269 262 268 278 286 316 325 324 355 95 100 92 84 84 90 81 79 82 70 61 49 51 51 43 35 45 45 54 42 42 46
226 211 226 234 257 266 261 258 260 255 250 259 261 267 265 269 266 254 260 261 259 263 299 327 328 70 119 111 101 93 86 84 86 81 77 71 46 41 40 39 36 32 26 29 40 62 54 60 54
225 240 252 258 267 268 252 252 253 254 255 259 266 265 260 264 261 245 239 233 231 247 313 56 115 127 118 108 99 90 85 84 85 89 63 53 44 42 39 36 29 31 30 27 31 51 52 60 25
227 240 244 268 265 259 249 242 244 249 256 255 248 245 228 212 227 214 208 225 221 167 128 122 131 122 120 111 108 94 83 77 68 59 58 53 40 35 30 30 26 25 24 25 31 31 41 47 32
276 249 254 245 233 239 233 214 226 219 198 219 232 199 207 197 205 223 222 215 153 126 127 128 130 126 123 117 93 90 84 77 69 58 49 39 33 26 21 24 23 23 22 21 21 23 27 34 61
5 333 308 347 247 233 200 204 186 215 208 220 229 230 258 239 203 183 163 137 127 132 131 139 129 128 122 107 91 86 76 65 56 48 36 27 22 19 17 17 21 19 13 17 15 5 10 33 41
281 305 335 334 320 211 211 196 191 225 233 238 252 253 262 253 179 145 132 131 136 137 140 137 133 120 115 105 89 80 65 57 47 36 30 22 9 18 11 15 12 9 6 358 2 6 3 339 336
260 275 293 334 360 75 195 158 230 241 242 245 248 254 254 195 157 137 141 141 142 144 142 136 131 120 112 97 79 72 54 43 30 19 17 9 7 10 3 4 3 2 355 357 356 353 353 353 321
250 257 267 291 322 113 177 165 273 257 238 237 216 211 196 169 148 145 148 148 148 149 144 141 131 122 106 88 75 58 46 30 15 5 6 1 3 358 1 360 358 357 354 355 353 344 346 347 341
247 249 251 256 256 240 187 178 188 210 196 196 182 168 164 163 157 151 150 154 153 149 150 146 136 126 116 93 63 40 28 16 7 356 359 358 4 359 358 357 354 353 351 349 347 343 347 349 337
247 251 246 240 241 209 207 179 216 165 177 177 166 173 179 174 161 156 155 154 153 156 161 156 152 149 132 72 38 20 4 3 357 353 354 357 357 359 356 355 354 352 351 351 350 343 342 335 333
237 247 245 234 233 221 207 199 201 189 184 174 177 204 191 174 164 163 163 163 167 175 181 179 179 185 203 324 357 353 350 354 348 345 345 347 354 355 353 354 357 356 353 346 347 352 346 339 338
229 229 241 235 232 228 213 212 203 197 193 197 208 206 187 185 176 174 175 179 184 190 195 199 203 212 239 284 329 339 344 342 341 340 339 343 342 345 347 354 352 353 354 350 344 346 349 349 349
234 228 233 238 229 229 229 217 227 220 199 199 212 199 197 201 193 191 193 196 201 208 215 218 221 227 241 280 314 327 333 334 336 333 334 334 334 336 341 342 346 350 349 348 343 342 342 348 345
237 231 231 236 231 221 238 234 233 222 216 210 199 202 204 207 214 223 221 219 222 228 234 240 242 250 261 286 304 315 322 326 327 327 332 330 323 328 332 338 338 343 346 343 343 343 340 341 344
234 236 231 232 239 235 239 234 243 237 230 228 215 211 211 217 214 218 236 241 240 242 246 252 250 256 273 288 300 309 311 314 318 319 325 329 324 323 327 330 334 336 339 341 340 342 338 332 333
233 235 236 230 232 234 231 226 239 231 235 229 231 224 227 224 230 233 237 244 247 250 253 257 257 258 269 283 294 303 305 309 311 313 316 319 320 322 323 326 332 333 336 337 338 337 337 334 330
234 234 232 232 227 230 233 230 236 238 240 235 230 227 236 231 235 242 246 249 252 250 253 257 257 261 265 278 289 293 297 303 307 309 315 311 313 316 320 324 327 327 330 334 336 336 336 335 328
241 237 234 236 236 233 231 234 236 240 239 243 241 236 234 224 234 234 242 244 252 251 247 255 260 261 266 275 283 286 293 298 302 308 312 311 310 311 316 320 323 325 332 332 335 334 332 332 328
243 237 238 234 234 233 230 232 237 240 240 240 239 241 236 234 239 241 240 240 245 252 253 253 258 266 269 271 277 283 289 294 298 303 308 308 309 310 314 317 321 325 327 329 334 331 330 329 328
259 253 246 240 237 233 233 225 236 237 236 236 238 242 242 237 233 240 249 248 247 251 254 256 260 263 268 270 276 281 285 289 294 300 303 306 306 308 312 316 318 321 323 327 330 329 328 328 328
Height
11004 11005 11005 11006 11006 11005 11005 11006 11007 11012 11014 11014 11015 11017 11018 11016 11017 11018 11018 11019 11019 11017 11014 11010 11007 11004 11002 11001 10998 10997 10995 10993 10989 10986 10982 10978 10973 10970 10966 10965 10964 10962 10960 10956 10953 10949 10947 10946 10945
11004 11004 11009 11007 11002 11001 10999 11001 11005 11009 11010 11010 11012 11013 11013 11013 11013 11014 11014 11015 11014 11012 11010 11007 11005 11002 11000 10999 10997 10995 10993 10990 10987 10982 10979 10975 10972 10969 10965 10964 10964 10962 10960 10957 10954 10951 10949 10947 10946
11001 11005 11007 11007 11003 10996 10997 10998 11001 11006 11006 11007 11007 11007 11009 11009 11008 11009 11009 11009 11009 11007 11005 11004 11001 10998 10997 10995 10995 10993 10991 10988 10983 10980 10977 10974 10971 10968 10966 10965 10964 10962 10960 10958 10955 10952 10949 10946 10944
11000 11005 11012 11000 10997 10991 10995 10998 10999 11005 11001 11004 11004 11004 11004 11005 11005 11005 11005 11004 11003 11001 10999 10997 10996 10995 10994 10993 10993 10991 10988 10986 10982 10979 10977 10974 10971 10968 10967 10966 10964 10962 10960 10957 10954 10951 10949 10946 10945
10997 10996 10997 10962 10990 10991 10992 10994 10998 11000 11000 11001 11001 11001 11002 11003 11002 11001 11000 10999 10997 10997 10995 10994 10993 10993 10992 10991 10990 10988 10986 10984 10981 10978 10975 10973 10970 10968 10968 10967 10965 10963 10961 10957 10953 10950 10948 10946 10945
10997 10994 10996 10993 10987 10989 10990 10991 10996 10995 10996 10996 10997 10998 10999 10998 10998 10996 10996 10995 10995 10994 10994 10993 10992 10991 10989 10988 10987 10985 10984 10981 10979 10977 10976 10974 10972 10971 10970 10967 10967 10965 10962 10958 10954 10951 10947 10947 10946
10995 10995 10987 10985 10982 10987 10983 10987 10993 10990 10992 10992 10988 10992 10993 10994 10993 10992 10992 10993 10993 10993 10991 10991 10990 10988 10987 10986 10984 10983 10982 10979 10978 10978 10978 10976 10975 10975 10972 10969 10969 10968 10966 10962 10957 10953 10949 10947 10947
10981 10978 10979 10985 10983 10984 10982 10984 10987 10990 10988 10989 10984 10987 10989 10987 10988 10988 10989 10991 10992 10990 10989 10989 10988 10986 10985 10984 10983 10982 10980 10978 10979 10979 10977 10976 10975 10976 10974 10973 10971 10972 10969 10965 10962 10957 10953 10952 10948
10978 10978 10977 10978 10975 10977 10979 10980 10982 10985 10983 10985 10985 10982 10984 10983 10986 10985 10987 10989 10989 10988 10987 10986 10984 10985 10985 10983 10982 10982 10981 10980 10981 10980 10979 10979 10978 10978 10976 10974 10972 10972 10970 10968 10966 10961 10956 10954 10953
10973 10972 10973 10972 10970 10971 10972 10974 10975 10981 10980 10981 10982 10983 10980 10982 10983 10982 10985 10986 10987 10986 10985 10984 10984 10985 10984 10984 10983 10984 10982 10982 10983 10982 10981 10981 10980 10980 10978 10977 10973 10973 10972 10970 10968 10963 10958 10956 10954
10965 10967 10965 10966 10968 10970 10969 10971 10972 10976 10977 10976 10979 10979 10980 10977 10980 10983 10983 10984 10985 10985 10984 10984 10984 10985 10985 10986 10986 10985 10984 10983 10985 10984 10984 10983 10982 10981 10980 10977 10976 10975 10972 10971 10969 10966 10963 10959 10958
10965 10964 10963 10964 10964 10965 10966 10970 10970 10972 10975 10974 10974 10975 10977 10976 10978 10979 10981 10982 10983 10984 10983 10983 10984 10986 10987 10988 10988 10987 10986 10984 10984 10986 10985 10983 10983 10983 10981 10979 10977 10974 10972 10971 10969 10968 10967 10963 10959
10965 10963 10965 10966 10964 10963 10963 10966 10969 10970 10970 10972 10972 10973 10974 10977 10977 10978 10980 10981 10982 10982 10982 10983 10986 10987 10989 10990 10990 10989 10988 10987 10987 10987 10986 10985 10984 10983 10981 10981 10978 10975 10973 10971 10969 10967 10967 10965 10961
10967 10966 10964 10965 10963 10963 10963 10964 10966 10967 10970 10970 10973 10974 10975 10975 10976 10977 10978 10979 10980 10981 10982 10985 10988 10989 10991 10992 10992 10991 10990 10990 10989 10989 10987 10985 10984 10983 10982 10979 10978 10975 10972 10970 10968 10967 10965 10963 10961
10966 10963 10961 10960 10959 10960 10962 10962 10965 10967 10968 10970 10973 10975 10976 10975 10975 10975 10977 10978 10980 10982 10985 10988 10989 10991 10993 10993 10993 10993 10993 10992 10991 10989 10987 10985 10983 10982 10981 10979 10977 10975 10973 10971 10967 10966 10965 10964 10961
10965 10964 10962 10960 10957 10957 10960 10961 10962 10966 10967 10970 10972 10973 10973 10973 10973 10974 10976 10979 10982 10984 10988 10989 10991 10993 10994 10995 10995 10995 10995 10994 10992 10990 10987 10985 10984 10982 10981 10979 10977 10975 10972 10969 10966 10964 10963 10960 10958
10962 10961 10961 10960 10957 10955 10956 10960 10959 10962 10965 10966 10968 10971 10971 10972 10971 10972 10976 10980 10983 10987 10989 10992 10994 10995 10996 10996 10997 10996 10996 10995 10993 10990 10988 10986 10984 10982 10980 10979 10976 10974 10971 10968 10964 10962 10959 10957 10955
10960 10959 10959 10960 10958 10954 10954 10957 10957 10960 10961 10963 10964 10970 10971 10972 10972 10973 10977 10980 10983 10987 10989 10992 10994 10995 10996 10997 10997 10997 10996 10994 10993 10990 10988 10986 10983 10982 10979 10977 10975 10972 10969 10966 10962 10960 10958 10955 10953
10956 10956 10956 10957 10958 10956 10954 10957 10959 10958 10959 10963 10964 10969 10972 10973 10974 10975 10978 10981 10984 10987 10989 10991 10993 10995 10997 10997 10998 10997 10996 10994 10992 10990 10987 10985 10984 10982 10978 10976 10973 10970 10967 10964 10961 10958 10955 10953 10951
10951 10952 10952 10954 10956 10957 10955 10956 10955 10958 10959 10962 10966 10970 10971 10972 10974 10977 10979 10982 10985 10987 10989 10992 10993 10995 10996 10997 10997 10997 10995 10994 10992 10990 10987 10984 10983 10982 10979 10976 10972 10968 10964 10961 10959 10956 10954 10951 10947
10945 10945 10946 10951 10951 10956 10955 10954 10955 10957 10960 10962 10966 10971 10971 10971 10973 10977 10979 10982 10984 10987 10989 10991 10993 10995 10995 10996 10996 10995 10994 10993 10990 10988 10986 10985 10982 10979 10976 10973 10969 10966 10963 10960 10956 10953 10951 10949 10946
10937 10935 10937 10942 10948 10953 10956 10955 10955 10956 10959 10964 10967 10970 10970 10972 10973 10976 10978 10981 10984 10986 10989 10990 10991 10993 10993 10994 10994 10993 10992 10991 10988 10987 10985 10982 10980 10977 10974 10971 10967 10963 10961 10957 10956 10953 10949 10945 10942
10922 10927 10929 10932 10940 10947 10950 10955 10956 10956 10958 10960 10966 10967 10969 10972 10973 10974 10977 10979 10982 10985 10987 10989 10990 10991 10992 10992 10991 10991 10990 10987 10985 10983 10982 10980 10977 10975 10971 10969 10967 10962 10958 10955 10951 10948 10946 10941 10936
10905 10919 10923 10926 10932 10944 10945 10951 10952 10956 10957 10957 10958 10963 10966 10970 10972 10974 10975 10977 10979 10982 10985 10987 10988 10989 10989 10989 10989 10988 10986 10984 10982 10980 10979 10977 10973 10972 10970 10966 10962 10959 10955 10952 10948 10944 10940 10937 10934
10898 10906 10915 10920 10926 10939 10940 10944 10944 10948 10951 10952 10954 10957 10959 10962 10965 10968 10972 10975 10977 10978 10980 10983 10985 10986 10987 10986 10986 10985 10983 10981 10978 10977 10975 10973 10970 10968 10965 10962 10958 10955 10952 10947 10942 10939 10935 10931 10927
10891 10895 10906 10914 10918 10921 10926 10937 10935 10938 10942 10946 10951 10950 10954 10959 10960 10964 10967 10970 10972 10974 10976 10978 10981 10981 10983 10983 10982 10981 10979 10977 10974 10972 10972 10970 10966 10963 10961 10958 10955 10951 10947 10943 10938 10933 10929 10924 10920
10874 10887 10886 10891 10900 10908 10921 10925 10927 10931 10937 10941 10944 10948 10949 10952 10957 10958 10964 10967 10967 10969 10971 10973 10976 10977 10977 10977 10977 10976 10975 10972 10970 10968 10967 10965 10962 10957 10954 10953 10950 10949 10944 10938 10931 10927 10922 10917 10912
10865 10866 10874 10887 10896 10906 10910 10914 10923 10924 10930 10931 10937 10940 10940 10942 10949 10949 10956 10960 10961 10964 10965 10966 10969 10971 10971 10972 10971 10970 10969 10966 10964 10963 10961 10957 10955 10953 10948 10946 10944 10940 10937 10932 10924 10918 10915 10910 10903
10849 10856 10859 10863 10877 10889 10896 10911 10907 10910 10914 10919 10924 10927 10932 10936 10941 10942 10948 10952 10955 10957 10959 10960 10962 10963 10964 10965 10963 10963 10962 10960 10958 10957 10955 10952 10947 10944 10944 10939 10937 10934 10929 10925 10918 10911 10904 10900 10896
10840 10844 10845 10854 10862 10869 10875 10900 10891 10893 10895 10904 10909 10914 10921 10927 10935 10939 10940 10942 10948 10948 10951 10953 10954 10956 10957 10957 10956 10955 10954 10952 10951 10951 10949 10945 10941 10935 10934 10933 10929 10927 10923 10917 10911 10905 10897 10890 10886